Tracking 19720 objects as of 26-Jun-2019
HD Live streaming from Space Station
objects crossing your sky now

FENGYUN 1C DEB

Track FENGYUN 1C DEB now!
10-day predictions


NORAD ID: 32124
Int'l Code: 1999-025CRS
Perigee: 458.6 km
Apogee: 556.2 km
Inclination: 99.0 °
Period: 94.6 minutes
Semi major axis: 6878 km
RCS: 0.0086 m2 (small)
Launch date: May 10, 1999
Source: People's Republic of China (PRC)
Launch site: Taiyaun Space Center, China (TSC)

Note: This is SATELLITE DEBRIS
aabbcc
Your satellite tracking list
Your tracking list is empty




NASA's NSSDC Master Catalog

Two Line Element Set (TLE):
1 32124U 99025CRS 19176.46104423  .00004318  00000-0  18161-3 0  9991
2 32124  99.0089  54.6083 0070928 107.4348 253.4653 15.21846313648828
Source of the keplerian elements: AFSPC